Погода в Рославле

Хотите узнать прогноз погоды в Рославле? Тогда Вам сюда: Погода в Рославле

Поиск расширенной информации на нашем сайте:

Полезная информация:

Новости сайта



02.01.2020
Опубликован Долгосрочный прогноз погоды по городам России и ближнего зарубежья на январь 2020 года.
Карты: Прогноз на январь и февраль 2020 года, Сравнение прогнозируемой аномалии приземной температуры воздуха на январь 2020 года по разным моделям.




Погода в Рославле - сегодня

Время (UTC), дата Ветер
(°,м/с) 
Видим.   Явления Облачность Т
(°С)
Тd
(°С)
f(%) Тe
(°С)
Pmin
(гПа)
dP
(гПа)
Po
(мм)
O2
(г/м3)
Тmin Tmax R s Состояние
почвы
12 03.03.21 290 (З) 20000 м    3/3 300 м 
[Cu hum]
+3.9 -4 56 +2  1020.6  -1.6  745  296           
15 03.03.21 270 (З) 20000 м    3/3 300 м 
[Cu Sc]
+2.5 -4 62 1019.6  -1.1  744  297           
18 03.03.21 240 (ЮЗ) 50000 м    9/0 средняя 
[Ac trans]
+0.9 -3.7 71 -1  1017.9  -1.8  743  299    +3.9       
21 03.03.21 250 (З) 20000 м    9/5 600 м средняя 
[Cu hum|Ac trans]
+1.6 -3.8 67 -2  1015.4  -2.4  741  297           
00 04.03.21 250 (З) 20000 м    9/0 средняя 
[Ac und]
+0.4 -3.2 77 -2  1013.1  -2.4  739  298           
03 04.03.21 220 (ЮЗ) 20000 м    3/0 верхняя 
[Ci fib]
-2.6 -4.8 85 -5  1009.4  -3.9  736  300  -2.6         
06 04.03.21 260 (З) 5{11}  10 км    10/10 400 м 
[St]
-2 -3.5 89 -5  1007.4  -1.8  735  299  -3.1      мокрый или
старый снег
50-90% 
09 04.03.21 280 (З) 10 км    10/10 540 м 
[Sc]
-0.5 -3 83 -2  1005.7  -1.5  733  296           
12 04.03.21 270 (З) 10 км    10/10 600 м 
[Sc]
-0.2 -3 81 -2  1004.3  -1.3  732  296           
15 04.03.21 250 (З) 10 км    10/10 450 м 
[St]
-0.7 -2.5 88 -3  1004  -0.3  732  296           
18 04.03.21 270 (З) 4000 м  дымка{снег}  9/9 600 м 
[Sc]
-0.5 -1.5 93 -3  1004.2  0.2  732  296    -0.2  0.0     
21 04.03.21 300 (СЗ) 10 км    9/9 420 м 
[St]
-0.5 -2.9 84 -3  1005.7  1.4  733  296           
00 05.03.21 320 (СЗ) 10 км    9/9 600 м 
[Sc]
-2.3 -5.2 80 -4  1007.7  1.7  735  299           
03 05.03.21 310 (СЗ) 20000 м    10/0 средняя 
[Ac und]
-3.2 -5.7 83 -5  1009.3  1.4  736  301  -3.3    0.0     
06 05.03.21 310 (СЗ) 20000 м    9/9 630 м 
[Cu Sc]
-2.8 -7.3 71 -5  1010.7  1.4  737  301  -3.3      мокрый или
старый снег
50-90% 
09 05.03.21 290 (З) 20000 м    8/8 600 м 
[Cu Sc]
-1.5 -7.9 62 -4  1011.9  1.3  738  300           
12 05.03.21 310 (СЗ) 20000 м    8/5 1000 м средняя, верхняя 
[Cu med, cong|Ac trans|Ci fib]
-0.1 -9.6 49 -2  1012.3  0.5  738  298           
15 05.03.21 270 (З) 20000 м    6/3 600 м средняя, верхняя 
[Cu med, cong|Ac trans|Cs]
-2.3 -6.7 72 -4  1013.5  739  301           
18 05.03.21 тихо ()   50000 м    3/0 средняя 
[Ac trans]
-5.2 -9 75 -5  1015.8  1.9  740  305    +0.5       
21 05.03.21 310 (СЗ) 20000 м    8/0 средняя, верхняя 
[Ac trans|Cs]
-4.6 -7.2 82 -6  1017.3  1.6  742  305           
00 06.03.21 330 (СЗ) 20000 м    9/0 средняя, верхняя 
[Ac trans|Cs]
-5.6 -9.4 75 -7  1019  1.5  743  306           
03 06.03.21 290 (З) 20000 м    ясно 
-8.2 -9 94 -8  1019.8  0.5  743  310  -8.2         
06 06.03.21 280 (З) 20000 м    3/3 600 м 
[Sc]
-7.6 -8.7 92 -9  1020.7  0.9  744  309  -8.7      сухой снег
50-90% 
09 06.03.21 300 (СЗ) 20000 м    8/8 600 м 
[Sc diur, vesp]
-3.7 -9.8 63 -7  1020.9  0.6  744  305           
12 06.03.21 280 (З) 20000 м    8/8 600 м 
[Sc diur, vesp]
-3.5 -12.5 50 -6  1020  -0.8  744  305           
Время (UTC), дата Ветер
(°,м/с) 
Видим.   Явления Облачность Т
(°С)
Тd
(°С)
f(%) Тe
(°С)
Pmin
(гПа)
dP
(гПа)
Po
(мм)
O2
(г/м3)
Тmin Tmax R s Состояние
почвы

Для получения пояснительной информации подведите курсор к названию столбца.

ПОГОДА в Рославле - архив

Всё, что Вы хотите узнать о погоде в Рославле - удобно и подробно!

Выберите нужную дату (начиная с 1 января 2019* года) и нажмите кнопку "Найти".
Будут отображены архивные сводки погоды по пункту Рославль, начиная с указанной даты.


Отображать данные в формате CSV (для использования в таблицах Excel)


Внимание! Наш архив погоды предназначен исключительно для личного некоммерческого использования в познавательных целях. Если Вам необходимы официальные справки о состоянии погоды (для производственных, юридических, коммерческих и т.п. целей), обращайтесь в органы Росгидромета.

*Примечание: данная дата относится к архиву по метеостанциям СССР (Россия, СНГ, Балтия).
Архив по метеостанциям Зарубежной Европы и Азии (кроме Китая) хранится 10 дней, по другим регионам земного шара (Китай, Африка, Америка, Австралия, Океания) - 1 день.

Рославль - район местоположения метеостанции


Название, широта, долгота, высота метеостанции:
Рославль 53.9°ш. 32.8°д. 224 м над ур. моря [Российская Федерация]

Дополнительная информация

В oтличие oт бoльшинства пoгoдных сайтoв мы публикуем пoдрoбную метеoинфoрмацию в детальнoм прoфессиoнальнoм фoрмате.

Характеристики температуры и влажнoсти вoздуха измеряются на высoте 2 м в тени вдали oт зданий и деревьев.
Скoрoсть ветра измеряется на высoте 10 м (на урoвне рoста челoвека скoрoсть ветра ниже в 1.5-2 раза). Если метеoстанция нахoдится в гoрoде или в лесу, тo скoрoсть ветра занижена на 2-4 м/с пo сравнению с oткрытым местoм. Скoрoсть ветра над акватoриями крупных рек и oзёр, а также на вершинах хoлмoв на 2-5 м/с выше, чем в oбычных услoвиях.
Атмoсфернoе давление в разных тoчках местнoсти мoжет значительнo oтличаться oт давления на метеoстанции, в зависимoсти oт услoвий рельефа (при пoдъёме на 10 м давление пoнижается примернo на 1 мм рт.ст.).